NOVA 11 [?]

Last updated on Wed Jun 28 2023 00:03:29 GMT+0000 (Coordinated Universal Time)

1 19223U 88052A 23178.29294038 .00000050 00000+0 99867-4 0 9995 2 19223 89.9805 79.9736 0030068 336.1063 139.0128 13.22788469690838

Satellite not in orbit

NOVA 11 [?]